Location: Fauquembergues
(50.6005°N, 2.0987°E)
Time: 04:05:07
(UTC+00:00)

Helios 1B rocket - Pass Details

Date: 14 July 2020
Orbit: 574 x 584 km, 98.1° (Epoch: 06 August)

Event Time Altitude Azimuth Distance (km) Brightness Sun altitude
Rises 00:25:07 0° 16° (NNE) 2,812 7.6 -17.5°
Reaches altitude 10° 00:27:18 10° 19° (NNE) 1,905 6.3 -17.5°
Maximum altitude 00:31:25 70° 103° (ESE) 621 2.5 -17.4°
Enters shadow 00:32:57 37° 176° (S) 914 2.9 -17.3°
